Weather History for Bucuresti / Imh, Romania

Change the Weather History Date:

Tuesday, April 14, 2009

  Actual Average Record
Temperature  
Mean Temperature 46 °F -  
Max Temperature 48 °F 69 °F - ()
Min Temperature 43 °F 46 °F - ()
Degree Days  
Heating Degree Days 20    
Moisture  
Dew Point 43 °F    
Average Humidity 89    
Maximum Humidity 100    
Minimum Humidity 67    
Precipitation  
Precipitation 0.03 in 0.08 in - ()
Sea Level Pressure  
Sea Level Pressure 29.80 in    
Wind  
Wind Speed 9 mph ()    
Max Wind Speed 15 mph    
Max Gust Speed -    
Visibility 5.5 miles    
Events Rain    
T = Trace of Precipitation, MM = Missing Value Source: Averaged Metar Reports

Daily Weather History Graph

Daily Weather History Graph

Search for Another Location

Airport:

Trip Planner

Search our weather history database for the weather conditions in past years. The results will help you decide how hot, cold, wet, or windy it might be!

Date:

Astronomy

Apr. 14, 2009 Rise Set
Actual Time 6:33 AM EEST 7:59 PM EEST
Civil Twilight 6:03 AM EEST 8:29 PM EEST
Nautical Twilight 5:26 AM EEST 9:06 PM EEST
Astronomical Twilight 4:47 AM EEST 9:45 PM EEST
Moon 12:32 AM EEST (4/14) 8:54 AM EEST (4/14)
Length of Visible Light 14h 26m
Length of Day
13h 25m
Waning Gibbous, 79% of the Moon is Illuminated
Apr 14
Waning Gibbous
Apr 17
Last Quarter
Apr 25
New
May 1
First Quarter
May 9
Full

Hourly Weather History & Observations

Time (EEST) Temp. Windchill Dew Point Humidity Pressure Visibility Wind Dir Wind Speed Gust Speed Precip Events Conditions
12:00 AM 45 °F - 42 °F 86% 29.89 in 6 mi ENE 6.7 mph - - Rain Light Rain
12:00 AM 46.4 °F 41.5 °F 42.8 °F 87% 29.83 in 5.0 mi ENE 10.4 mph - N/A Rain Light Rain Showers
12:30 AM 46.4 °F 40.7 °F 42.8 °F 87% 29.83 in 5.0 mi NE 12.7 mph - N/A Rain Light Rain Showers
1:00 AM 44 °F - 43 °F 95% 29.84 in 6 mi ENE 8.9 mph - - Rain Light Rain
1:00 AM 46.4 °F 40.1 °F 42.8 °F 87% 29.80 in 6.2 mi NE 15.0 mph - N/A Rain Light Rain Showers
1:30 AM 46.4 °F 40.4 °F 42.8 °F 87% 29.80 in 6.2 mi ENE 13.8 mph - N/A   Mostly Cloudy
2:00 AM 44 °F - 43 °F 96% 29.84 in 6 mi ENE 8.9 mph - - Rain Light Rain
2:00 AM 44.6 °F 38.4 °F 42.8 °F 93% 29.80 in 6.2 mi NE 12.7 mph - N/A   Mostly Cloudy
2:30 AM 44.6 °F 39.2 °F 42.8 °F 93% 29.80 in 6.2 mi ENE 10.4 mph - N/A   Mostly Cloudy
3:00 AM 44 °F - 43 °F 94% 29.83 in 6 mi ENE 6.7 mph - -   Partly Cloudy
3:00 AM 44.6 °F 38.8 °F 42.8 °F 93% 29.80 in 6.2 mi NE 11.5 mph - N/A   Overcast
3:30 AM 44.6 °F 39.7 °F 42.8 °F 93% 29.80 in 6.2 mi NE 9.2 mph - N/A   Overcast
4:00 AM 44 °F - 43 °F 93% 29.83 in 6 mi NE 6.7 mph - -   Overcast
4:00 AM 44.6 °F 39.2 °F 42.8 °F 93% 29.80 in 6.2 mi NNE 10.4 mph - N/A   Overcast
4:30 AM 44.6 °F 40.2 °F 41.0 °F 87% 29.80 in 6.2 mi NE 8.1 mph - N/A   Light Drizzle
5:00 AM 44 °F - 42 °F 88% 29.82 in 6 mi NE 6.7 mph - -   Overcast
5:00 AM 44.6 °F 39.7 °F 41.0 °F 87% 29.77 in 6.2 mi NNE 9.2 mph - N/A   Light Drizzle
5:30 AM 44.6 °F 39.7 °F 41.0 °F 87% 29.77 in 6.2 mi NNE 9.2 mph - N/A Rain Light Rain
6:00 AM 44 °F - 42 °F 88% 29.80 in 6 mi NNE 4.5 mph - -   Overcast
6:00 AM 44.6 °F 40.2 °F 42.8 °F 93% 29.77 in 6.2 mi NE 8.1 mph - N/A   Overcast
6:30 AM 44.6 °F 39.7 °F 42.8 °F 93% 29.77 in 6.2 mi NE 9.2 mph - N/A   Overcast
7:00 AM 44 °F - 42 °F 89% 29.79 in 6 mi NE 6.7 mph - - Rain Light Rain
7:00 AM 44.6 °F 39.7 °F 42.8 °F 93% 29.77 in 6.2 mi NNE 9.2 mph - N/A   Overcast
7:30 AM 44.6 °F 39.2 °F 42.8 °F 93% 29.74 in 6.2 mi NNE 10.4 mph - N/A   Mostly Cloudy
8:00 AM 44 °F - 42 °F 89% 29.78 in 6 mi NE 6.7 mph - -   Overcast
8:00 AM 46.4 °F 41.5 °F 42.8 °F 87% 29.74 in 6.2 mi NNE 10.4 mph - N/A   Mostly Cloudy
8:30 AM 46.4 °F 41.9 °F 42.8 °F 87% 29.74 in 6.2 mi NNE 9.2 mph - N/A   Mostly Cloudy
9:00 AM 45 °F - 42 °F 86% 29.79 in 6 mi NE 6.7 mph - -   Partly Cloudy
9:00 AM 46.4 °F 42.4 °F 42.8 °F 87% 29.74 in 6.2 mi NNE 8.1 mph - N/A   Mostly Cloudy
9:30 AM 46.4 °F 41.1 °F 42.8 °F 87% 29.74 in 6.2 mi NNE 11.5 mph - N/A   Mostly Cloudy
10:00 AM 45 °F - 42 °F 87% 29.78 in 6 mi NE 6.7 mph - -   Overcast
10:00 AM 46.4 °F 41.1 °F 42.8 °F 87% 29.74 in 6.2 mi NNE 11.5 mph - N/A   Mostly Cloudy
10:30 AM 46.4 °F 40.7 °F 42.8 °F 87% 29.77 in 6.2 mi NE 12.7 mph - N/A   Mostly Cloudy
11:00 AM 45 °F - 42 °F 86% 29.79 in 6 mi ENE 8.9 mph - -   Overcast
11:00 AM 46.4 °F 41.1 °F 42.8 °F 87% 29.77 in 6.2 mi NE 11.5 mph - N/A Rain Light Rain
11:30 AM 46.4 °F 40.4 °F 44.6 °F 93% 29.77 in 6.2 mi NE 13.8 mph - N/A Rain Light Rain
12:00 PM 45 °F - 43 °F 88% 29.81 in 6 mi NE 8.9 mph - - Rain Light Rain Showers
12:00 PM 46.4 °F 40.7 °F 44.6 °F 93% 29.77 in 6.2 mi NE 12.7 mph - N/A Rain Light Rain
12:30 PM 46.4 °F 41.5 °F 44.6 °F 93% 29.77 in 6.2 mi NE 10.4 mph - N/A   Mostly Cloudy
1:00 PM 45 °F - 43 °F 91% 29.81 in 6 mi NE 8.9 mph - -   Overcast
1:00 PM 46.4 °F 40.4 °F 44.6 °F 93% 29.77 in 6.2 mi NNE 13.8 mph - N/A Rain Light Rain
1:30 PM 46.4 °F 41.1 °F 44.6 °F 93% 29.77 in 6.2 mi NE 11.5 mph - N/A Rain Light Rain
2:00 PM 45 °F - 44 °F 93% 29.81 in 6 mi NE 6.7 mph - -   Overcast
2:00 PM 46.4 °F 41.1 °F 44.6 °F 93% 29.77 in 1.9 mi NE 11.5 mph - N/A Rain Light Drizzle
2:30 PM 46.4 °F 40.4 °F 44.6 °F 93% 29.77 in 1.9 mi NE 13.8 mph - N/A Rain Light Rain
3:00 PM 46 °F - 45 °F 95% 29.81 in 2 mi NE 8.9 mph - - Rain Light Rain
3:00 PM 46.4 °F 40.7 °F 46.4 °F 100% 29.77 in 1.9 mi NNE 12.7 mph - N/A Rain Light Drizzle
3:30 PM 46.4 °F 40.7 °F 46.4 °F 100% 29.77 in 2.5 mi NNE 12.7 mph - N/A   Light Drizzle
4:00 PM 46 °F - 46 °F 97% 29.81 in 2 mi NNE 8.9 mph - - Rain Light Rain
4:00 PM 46.4 °F 41.1 °F 46.4 °F 100% 29.77 in 3.1 mi NNE 11.5 mph - N/A   Light Drizzle
4:30 PM 46.4 °F 40.7 °F 46.4 °F 100% 29.77 in 2.5 mi NNE 12.7 mph - N/A   Light Drizzle
5:00 PM 46 °F - 46 °F 97% 29.81 in 2 mi NE 8.9 mph - - Rain Light Rain
5:00 PM 46.4 °F 41.1 °F 46.4 °F 100% 29.77 in 3.1 mi NE 11.5 mph - N/A   Light Drizzle
5:30 PM 48.2 °F - 46.4 °F 93% 29.77 in 6.2 mi NNE 11.5 mph - N/A   Mostly Cloudy
6:00 PM 46 °F - 46 °F 98% 29.82 in 2 mi NE 6.7 mph - - Rain Light Rain
6:00 PM 48.2 °F - 46.4 °F 93% 29.80 in 6.2 mi NNE 10.4 mph - N/A   Mostly Cloudy
6:30 PM 48.2 °F - 44.6 °F 87% 29.80 in 6.2 mi NNE 8.1 mph - N/A   Scattered Clouds
7:00 PM 47 °F - 45 °F 88% 29.83 in 6 mi NNE 6.7 mph - -   Overcast
7:00 PM 48.2 °F - 44.6 °F 87% 29.80 in 6.2 mi NNE 6.9 mph - N/A   Mostly Cloudy
7:30 PM 48.2 °F - 44.6 °F 87% 29.80 in 6.2 mi NNE 6.9 mph - N/A   Overcast
8:00 PM 47 °F - 43 °F 82% 29.83 in 6 mi NE 4.5 mph - -   Overcast
8:00 PM 48.2 °F - 44.6 °F 87% 29.80 in 6.2 mi NE 6.9 mph - N/A   Overcast
8:30 PM 48.2 °F - 42.8 °F 82% 29.80 in 6.2 mi NE 6.9 mph - N/A   Overcast
9:00 PM 47 °F - 41 °F 73% 29.84 in 6 mi NE 6.7 mph - -   Partly Cloudy
9:00 PM 48.2 °F - 42.8 °F 82% 29.80 in 6.2 mi NNE 5.8 mph - N/A   Overcast
9:30 PM 48.2 °F - 41.0 °F 76% 29.83 in 6.2 mi NNE 5.8 mph - N/A   Overcast
10:00 PM 47 °F - 40 °F 67% 29.85 in 6 mi NNE 4.5 mph - -   Overcast
10:00 PM 48.2 °F - 41.0 °F 76% 29.83 in 6.2 mi NNE 3.5 mph - N/A   Overcast
10:30 PM 48.2 °F - 41.0 °F 76% 29.83 in 6.2 mi North 4.6 mph - N/A   Overcast
11:00 PM 46 °F - 40 °F 71% 29.85 in 6 mi North 4.5 mph - -   Overcast
11:00 PM 48.2 °F - 41.0 °F 76% 29.83 in 6.2 mi North 3.5 mph - N/A   Mostly Cloudy
11:30 PM 48.2 °F - 41.0 °F 76% 29.83 in - North 3.5 mph - N/A   Clear